OpenBCM V1.13 (Linux)

Packet Radio Mailbox

DB0FHN

[JN59NK Nuernberg]

 Login: GUEST





  
LU1HVK > KEP      10.09.19 07:34l 242 Lines 12024 Bytes #999 (0) @ WW
BID : 31540_LU1HVK
Read: DJ6UX DF7EAV GUEST
Subj: TLE 10 09
Path: DB0FHN<DB0BLO<DB0ERF<IZ3LSV<IV3SCP<IW0QNL<JH4XSY<N3HYM<LU3DVN<LU1HVK
Sent: 190910/0523Z 31540@LU1HVK.2594.CBA.ARG.SA LinBPQ6.0.18

                         _    _   _ _ _   ___     ___  __
                        | |  | | | / | | | \ \   / / |/ /
                        | |  | | | | | |_| |\ \ / /| ' /
                        | |__| |_| | |  _  | \ V / | . \
                        |_____\___/|_|_| |_|  \_/  |_|\_\

     BBS/NODO - CORDOBA (LEONES-FF87UH) - LU1HVK-4 NODO - LU1HVK-3 APRS

+----------------------------------------------------------------------------+
OSCAR 7
1  7530U 74089B   19252.85729618 -.00000021 +00000-0 +14732-3 0  9992
2  7530 101.7528 219.6920 0011967 184.9775 228.4173 12.53639792050701
OSCAR 11 (UoSAT 2)
1 14781U 84021B   19252.95563910 +.00000046 +00000-0 +11769-4 0  9991
2 14781 097.6078 273.7190 0009681 052.9770 307.2329 14.83104852890103
OSCAR 19 (LUSAT)
1 20442U 90005G   19252.90287922 -.00000002 +00000-0 +15609-4 0  9992
2 20442 098.6530 194.7832 0010596 264.2912 095.7063 14.32932207548231
EYESAT A
1 22825U 93061C   19252.97002747 -.00000005 +00000-0 +16104-4 0  9995
2 22825 098.9096 243.5309 0009399 113.4219 246.7951 14.30065848353586
ITAMSAT
1 22826U 93061D   19252.95229222 +.00000011 +00000-0 +22208-4 0  9991
2 22826 098.9036 243.4938 0009999 103.5060 256.7236 14.30399874353809
RADIO ROSTO
1 23439U 94085A   19252.88510121 -.00000057 +00000-0 -41666-3 0  9992
2 23439 064.8206 341.5910 0145599 097.0944 264.6561 11.27568287017272
JAS 2
1 24278U 96046B   19252.88558011 -.00000056  00000-0 -21490-4 0  9996
2 24278  98.5497  35.0473 0350770  24.4867 337.2492 13.53092999139050
TECHSAT 1B
1 25397U 98043D   19252.90230467 -.00000016 +00000-0 +12319-4 0  9998
2 25397 098.6925 192.0549 0001984 123.4056 236.7312 14.23670147099490
ISS (ZARYA)
1 25544U 98067A   19252.98002081  .00000494  00000-0  16483-4 0  9990
2 25544  51.6455 300.6889 0008051  24.3206  37.6236 15.50440148188414
PCSAT
1 26931U 01043C   19252.90822443 -.00000044 +00000-0 +14774-4 0  9996
2 26931 067.0513 148.9419 0007448 272.0694 087.9554 14.30551564936802
SAUDISAT 1C
1 27607U 02058C   19252.90921616 -.00000062 +00000-0 +12240-4 0  9992
2 27607 064.5551 155.1688 0077490 240.4443 118.8920 14.75569765899181
CUTE-1
1 27844U 03031E   19252.95209745 +.00000047 +00000-0 +40680-4 0  9995
2 27844 098.6852 259.9233 0010456 144.6188 215.5685 14.22193314840088
CUBESAT XI 4
1 27848U 03031J   19252.96796884 +.00000037 +00000-0 +36427-4 0  9998
2 27848 098.6928 260.4565 0010150 155.6236 204.5423 14.21786643839941
MOZHAYETS 4
1 27939U 03042A   19252.79510908  .00000058  00000-0  18954-4 0  9991
2 27939  98.0517  27.0453 0013488 159.8314 200.3433 14.66800783852720
CUBESAT XI 5
1 28895U 05043F   19252.91003645 +.00000084 +00000-0 +24925-4 0  9999
2 28895 097.9709 032.8435 0018206 089.5266 270.8023 14.63688422739424
CUTE-1.7+APD II
1 32785U 08021C   19252.78331342 +.00000165 +00000-0 +23394-4 0  9993
2 32785 097.5537 248.5941 0012883 354.7453 005.3627 14.88340939615979
DELFI C3
1 32789U 08021G   19252.94748215 +.00001328 +00000-0 +92398-4 0  9998
2 32789 097.4576 300.0744 0011915 193.1576 166.9343 15.07095184619408
SEEDS
1 32791U 08021J   19252.79590083 +.00000157 +00000-0 +21267-4 0  9998
2 32791 097.5304 254.6590 0012398 327.3553 032.6898 14.90863855616417
YUBELEINY
1 32953U 08025A   19252.86487006  .00000020  00000-0  75656-4 0  9990
2 32953  82.4989  93.0415 0018992 310.4173  49.5239 12.43091159512649
PRISM (HITOMI)
1 33493U 09002B   19252.76351202 -.00000036 +00000-0 +24923-5 0  9993
2 33493 098.1204 176.8673 0013605 269.9137 090.0524 14.96725533577563
KKS-1 (KISEKI)
1 33499U 09002H   19252.88561767 +.00000072 +00000-0 +18651-4 0  9990
2 33499 098.3454 094.2284 0008130 307.2992 052.7475 14.75460257571066
SWISSCUBE
1 35932U 09051B   19252.93914220 +.00000115 +00000-0 +37061-4 0  9994
2 35932 098.5961 061.3880 0006428 270.2940 089.7521 14.56307015528854
BEESAT
1 35933U 09051C   19252.93710234 +.00000086 +00000-0 +30539-4 0  9994
2 35933 098.5982 063.1802 0004676 287.0335 073.0350 14.56393279528920
ITUPSAT 1
1 35935U 09051E   19252.76787508 +.00000067 +00000-0 +26641-4 0  9993
2 35935 098.6092 063.2374 0006968 283.6005 076.4415 14.55550046528691
XIWANG-1 (HOPE-1)
1 36122U 09072B   19252.73282685 -.00000053 +00000-0 -28266-4 0  9990
2 36122 100.0759 251.2180 0007818 150.8517 209.3035 13.16350723467806
TISAT 1
1 36799U 10035E   19252.89179257 +.00000205 +00000-0 +26830-4 0  9990
2 36799 098.1664 047.8569 0012584 167.0951 193.0591 14.91149606496961
JUGNU
1 37839U 11058B   19252.94293587 +.00000306 +00000-0 +21116-4 0  9995
2 37839 019.9603 189.9293 0019062 164.4468 252.5995 14.12657930408931
SRMSAT
1 37841U 11058D   19252.34968760 +.00000319 +00000-0 +30013-4 0  9994
2 37841 019.9712 252.0150 0011922 025.7165 113.7605 14.10638359408285
M-CUBED/EXP-1 PRIME
1 37855U 11061F   19252.80688901 +.00000207 +00000-0 +18672-4 0  9993
2 37855 101.7107 191.0663 0173037 190.3374 169.4262 15.05566209428813
HORYU 2
1 38340U 12025D   19252.77057136 +.00000107 +00000-0 +23631-4 0  9990
2 38340 098.3228 293.8255 0010790 213.8528 146.1992 14.75745461383002
STRAND 1
1 39090U 13009E   19252.82514453 +.00000009 +00000-0 +18485-4 0  9994
2 39090 098.4815 097.3619 0010080 046.8557 313.3469 14.35095808342299
SOMP
1 39134U 13015E   19252.90620803 +.00000699 +00000-0 +41065-4 0  9991
2 39134 064.8623 110.8120 0035575 289.5892 070.1396 15.20301296352861
BEESAT 3
1 39135U 13015F   19252.91053239 +.00000555 +00000-0 +37173-4 0  9992
2 39135 064.8686 130.2757 0032333 301.4768 058.3199 15.17585795352489
BEESAT 2
1 39136U 13015G   19252.91328297 +.00000689 +00000-0 +44539-4 0  9994
2 39136 064.8686 134.3264 0024090 304.6625 055.2230 15.17003302352409
CUBEBUG 1
1 39153U 13018D   19252.82175357  .00000122  00000-0  22813-4 0  9996
2 39153  97.9805 350.4896 0015586 290.7117  69.2424 14.80591306344115
ZACUBE
1 39417U 13066B   19252.93606607 +.00000161 +00000-0 +26401-4 0  9991
2 39417 097.5629 261.7603 0060315 120.3233 240.3965 14.81144214313363
TRITON 1
1 39427U 13066M   19252.89258136 +.00000163 +00000-0 +34266-4 0  9997
2 39427 097.6850 225.1672 0112288 259.0354 099.8203 14.67875211310352
GOMX 1
1 39430U 13066Q   19252.79665990  .00000222  00000-0  49346-4 0  9991
2 39430  97.7533 203.9055 0151445 352.7398   7.1610 14.59281016308728
HUMSAT D
1 39433U 13066T   19252.56224716 +.00000195 +00000-0 +24257-4 0  9999
2 39433 097.5468 296.6510 0031353 026.9984 333.2859 14.92242742314250
CUBEBUG 2
1 39440U 13066AA  19252.93948151 +.00000152 +00000-0 +28076-4 0  9990
2 39440 097.6068 246.4807 0080331 173.4478 186.7803 14.75881920311056
FUNCUBE 1
1 39444U 13066AE  19252.95806388 +.00000207 +00000-0 +31607-4 0  9996
2 39444 097.5604 263.8064 0059515 113.8987 246.8478 14.81969064311673
UWE-3
1 39446U 13066AG  19252.93647786 +.00000148 +00000-0 +26224-4 0  9994
2 39446 097.5840 253.5871 0070843 147.3355 213.2269 14.78416783310976
SPROUT
1 39770U 14029E   19252.84932262  .00000416  00000-0  52106-4 0  9996
2 39770  97.8878 355.6202 0008957 164.7259 195.4225 14.87410509287195
UNISAT 6
1 40012U 14033C   19252.83398220 +.00000133 +00000-0 +27252-4 0  9991
2 40012 097.7462 115.8185 0057956 188.2480 171.7782 14.74003308280931
DUCHIFAT 1
1 40021U 14033M   19252.84754493 +.00000188 +00000-0 +25064-4 0  9999
2 40021 097.9225 177.7153 0013858 131.0412 229.2006 14.90674792283936
QB50P1
1 40025U 14033R   19252.76225340 +.00000149 +00000-0 +21827-4 0  9998
2 40025 097.9029 172.3050 0013224 140.7010 219.5169 14.88976989283175
CHUBUSAT 1
1 40300U 14070C   19252.76712817  .00000569  00000-0  27651-4 0  9992
2 40300  97.3211 324.8289 0020803 120.9735  30.6402 15.22159304268652
NUDT-PHONESAT
1 40900U 15049B   19252.83419274  .00001679  00000-0  74332-4 0  9995
2 40900  97.4379 261.3614 0011122 252.1514 231.7228 15.23009124220314
ZDPS 2A
1 40901U 15049C   19252.81833655  .00000817  00000-0  43691-4 0  9994
2 40901  97.4609 257.4473 0011917 276.2674 207.4980 15.17819239219846
ZDPS 2B
1 40902U 15049D   19252.78728098  .00000961  00000-0  51002-4 0  9990
2 40902  97.4563 254.8478 0011764 272.5640 212.4998 15.17665829219810
XW-2A
1 40903U 15049E   19252.78249041  .00001494  00000-0  36923-4 0  9994
2 40903  97.3309 295.9917 0012744 198.0047 267.1206 15.42061351223052
KAITUO 1A
1 40904U 15049F   19252.80687677  .00000728  00000-0  42003-4 0  9994
2 40904  97.4696 253.4026 0013068 282.4030 201.1105 15.15423391219588
OBJECT G
1 40905U 15049G   19252.81383280  .00000391  00000-0  24884-4 0  9992
2 40905  97.4743 250.8750 0014123 276.4405 205.9293 15.14336338219458
XW-2C
1 40906U 15049H   19252.85573097  .00000518  00000-0  30602-4 0  9990
2 40906  97.4705 253.5675 0013182 272.1033 206.7496 15.15742057219596
XW-2D
1 40907U 15049J   19252.82356660  .00000513  00000-0  30191-4 0  9991
2 40907  97.4686 253.2158 0012653 269.7296 212.5590 15.15934425219607
LILACSAT 2
1 40908U 15049K   19252.81984177  .00000321  00000-0  21358-4 0  9993
2 40908  97.4818 251.9552 0014337 277.1924 207.2769 15.13841857219388
XW-2F
1 40910U 15049M   19252.95894409 +.00000684 +00000-0 +37534-4 0  9994
2 40910 097.4647 255.4694 0013086 260.6524 160.5724 15.17401619219643
XW-2B
1 40911U 15049N   19252.79453793  .00000630  00000-0  36359-4 0  9999
2 40911  97.4707 253.8511 0012431 270.3282 214.5400 15.15864406219492
KAITUO 1B
1 40912U 15049P   19252.80913284  .00001013  00000-0  50536-4 0  9997
2 40912  97.4513 259.0916 0013384 240.4079 245.6746 15.19727855219932
TIANWANG 1C (TW-1C)
1 40926U 15051B   19252.77948691  .00011164  00000-0  15504-3 0  9994
2 40926  97.1280 298.8845 0009415  69.7177 354.3043 15.57132144223080
TIANWANG 1B (TW-1B)
1 40927U 15051C   19252.82324487  .00010624  00000-0  15694-3 0  9992
2 40927  97.1316 298.1311 0009718  78.1217 339.9522 15.55463209222938
